Marion Regional, IL

8:19 PM CDT on June 23, 2017 (GMT -0500)
Williamson County Regional

Weather History for KMWA - February, 2014

Change the Weather History Date:

Wednesday, February 26, 2014

  Actual Average Record
Temperature  
Mean Temperature 20 °F -  
Max Temperature 26 °F 46 °F 76 °F (1981)
Min Temperature 15 °F 26 °F 8 °F (1974)
Degree Days  
Heating Degree Days 44    
Moisture  
Dew Point 6 °F    
Average Humidity 53    
Maximum Humidity 74    
Minimum Humidity 29    
Precipitation  
Precipitation 0.00 in - - ()
Sea Level Pressure  
Sea Level Pressure 30.18 in    
Wind  
Wind Speed 10 mph (WNW)    
Max Wind Speed 17 mph    
Max Gust Speed 23 mph    
Visibility 12 miles    
Events Snow    
Averages and records for this station are not official NWS values.
T = Trace of Precipitation, MM = Missing Value Source: NWS Daily Summary

Daily Weather History Graph

Daily Weather History Graph

Search for Another Location

Airport or City:

Trip Planner

Search our weather history database for the weather conditions in past years. The results will help you decide how hot, cold, wet, or windy it might be!

Date:

Astronomy

Feb. 26, 2014 Rise Set
Actual Time 6:31 AM CST 5:46 PM CST
Civil Twilight 6:05 AM CST 6:13 PM CST
Nautical Twilight 5:34 AM CST 6:43 PM CST
Astronomical Twilight 5:04 AM CST 7:13 PM CST
Moon 4:15 AM CST (2/26) 3:03 PM CST (2/26)
Length of Visible Light 12h 07m
Length of Day
11h 15m
Waning Crescent, 10% of the Moon is Illuminated
Feb 26
Waning Crescent
Mar 1
New
Mar 8
First Quarter
Mar 16
Full
Mar 23
Last Quarter

Hourly Weather History & Observations

Time (CST) Temp. Windchill Dew Point Humidity Pressure Visibility Wind Dir Wind Speed Gust Speed Precip Events Conditions
12:15 AM 24.8 °F 14.0 °F 17.6 °F 74% 30.27 in 10.0 mi NW 11.5 mph - N/A   Overcast
12:35 AM 24.8 °F 14.0 °F 15.8 °F 69% 30.27 in 10.0 mi NNW 11.5 mph 19.6 mph N/A   Overcast
12:55 AM 24.8 °F 15.3 °F 17.6 °F 74% 30.28 in 5.0 mi NW 9.2 mph 16.1 mph N/A Snow Light Snow
1:15 AM 23.0 °F 14.7 °F 14.0 °F 68% 30.28 in 10.0 mi NW 6.9 mph 18.4 mph N/A   Overcast
1:35 AM 23.0 °F 10.6 °F 6.8 °F 50% 30.29 in 10.0 mi NNW 13.8 mph 20.7 mph N/A   Overcast
1:55 AM 23.0 °F 11.7 °F 5.0 °F 46% 30.30 in 10.0 mi NW 11.5 mph 19.6 mph N/A   Overcast
2:15 AM 21.2 °F 7.8 °F 3.2 °F 46% 30.31 in 10.0 mi NNW 15.0 mph 23.0 mph N/A   Overcast
2:35 AM 19.4 °F 7.2 °F 5.0 °F 54% 30.30 in 10.0 mi North 11.5 mph 19.6 mph N/A Snow Light Snow
2:55 AM 19.4 °F 8.6 °F 6.8 °F 58% 30.29 in 10.0 mi NNW 9.2 mph 21.9 mph N/A   Overcast
3:15 AM 19.4 °F 7.9 °F 6.8 °F 58% 30.29 in 10.0 mi NNW 10.4 mph - N/A   Mostly Cloudy
3:35 AM 19.4 °F 5.5 °F 3.2 °F 49% 30.29 in 10.0 mi North 15.0 mph 18.4 mph N/A   Scattered Clouds
3:55 AM 19.4 °F 7.2 °F 5.0 °F 54% 30.28 in 10.0 mi North 11.5 mph 18.4 mph N/A   Clear
4:15 AM 17.6 °F 8.2 °F 5.0 °F 58% 30.29 in 10.0 mi North 6.9 mph - N/A   Clear
4:35 AM 17.6 °F 6.4 °F 5.0 °F 58% 30.30 in 10.0 mi NNW 9.2 mph 16.1 mph N/A   Mostly Cloudy
4:55 AM 17.6 °F 4.3 °F 3.2 °F 53% 30.30 in 10.0 mi North 12.7 mph 17.3 mph N/A   Scattered Clouds
5:15 AM 17.6 °F 5.7 °F 3.2 °F 53% 30.31 in 10.0 mi NNW 10.4 mph 16.1 mph N/A   Scattered Clouds
5:35 AM 17.6 °F 6.4 °F 3.2 °F 53% 30.31 in 10.0 mi NNW 9.2 mph 16.1 mph N/A   Scattered Clouds
5:55 AM 15.8 °F 2.7 °F 3.2 °F 58% 30.31 in 10.0 mi NNW 11.5 mph 18.4 mph N/A   Clear
6:15 AM 15.8 °F 2.7 °F 3.2 °F 58% 30.31 in 10.0 mi NNW 11.5 mph 18.4 mph N/A   Scattered Clouds
6:53 AM 15.8 °F -0.2 °F 3.2 °F 58% 30.32 in 20.0 mi North 17.3 mph - N/A   Mostly Cloudy
7:53 AM 15.8 °F -0.2 °F 3.2 °F 58% 30.32 in 20.0 mi North 17.3 mph - N/A   Scattered Clouds
8:53 AM 17.6 °F 5.0 °F 3.2 °F 53% 30.31 in 20.0 mi North 11.5 mph - N/A   Scattered Clouds
9:53 AM 19.4 °F 7.2 °F 1.4 °F 46% 30.31 in 20.0 mi NW 11.5 mph - N/A   Scattered Clouds
10:53 AM 21.2 °F 9.5 °F 3.2 °F 46% 30.29 in 20.0 mi NW 11.5 mph - N/A   Clear
12:55 PM 23.0 °F 13.1 °F -0.4 °F 36% 30.22 in 20.0 mi NNW 9.2 mph - N/A   Clear
1:55 PM 24.8 °F 14.0 °F 1.4 °F 36% 30.17 in 20.0 mi WNW 11.5 mph - N/A   Clear
2:55 PM 26.6 °F 16.2 °F -2.2 °F 29% 30.14 in 20.0 mi NW 11.5 mph - N/A   Clear
3:55 PM 26.6 °F 20.0 °F 1.4 °F 34% 30.11 in 20.0 mi WSW 5.8 mph - N/A   Clear
4:55 PM 26.6 °F 16.2 °F -0.4 °F 31% 30.09 in 20.0 mi WNW 11.5 mph - N/A   Clear
5:55 PM 26.6 °F 19.1 °F 1.4 °F 34% 30.07 in 20.0 mi West 6.9 mph - N/A   Clear
6:55 PM 24.8 °F - 6.8 °F 46% 30.04 in 10.0 mi Calm Calm - N/A   Clear
7:15 PM 23.0 °F - 8.6 °F 54% 30.04 in 10.0 mi Calm Calm - N/A   Clear
7:35 PM 23.0 °F 18.4 °F 6.8 °F 50% 30.03 in 10.0 mi South 3.5 mph - N/A   Clear
7:55 PM 21.2 °F 14.9 °F 6.8 °F 54% 30.02 in 10.0 mi SSW 4.6 mph - N/A   Clear
8:15 PM 19.4 °F 11.5 °F 10.4 °F 68% 30.02 in 10.0 mi SSW 5.8 mph - N/A   Clear
8:35 PM 21.2 °F 13.6 °F 6.8 °F 54% 30.01 in 10.0 mi SSW 5.8 mph - N/A   Clear
8:55 PM 23.0 °F 15.8 °F 5.0 °F 46% 30.02 in 10.0 mi SSW 5.8 mph - N/A   Clear
9:15 PM 21.2 °F 12.6 °F 6.8 °F 54% 30.02 in 10.0 mi SSW 6.9 mph - N/A   Clear
9:35 PM 23.0 °F 14.7 °F 6.8 °F 50% 30.02 in 10.0 mi SSW 6.9 mph - N/A   Clear
9:55 PM 23.0 °F 17.0 °F 6.8 °F 50% 30.02 in 10.0 mi SW 4.6 mph - N/A   Clear
10:15 PM 21.2 °F 16.4 °F 6.8 °F 54% 30.02 in 10.0 mi SW 3.5 mph - N/A   Clear
10:35 PM 21.2 °F 16.4 °F 6.8 °F 54% 30.02 in 10.0 mi SW 3.5 mph - N/A   Clear
10:55 PM 23.0 °F 15.8 °F 8.6 °F 54% 30.01 in 10.0 mi SW 5.8 mph - N/A   Clear
11:15 PM 21.2 °F 16.4 °F 8.6 °F 58% 30.01 in 10.0 mi SW 3.5 mph - N/A   Clear
11:35 PM 21.2 °F 14.9 °F 8.6 °F 58% 30.00 in 10.0 mi SW 4.6 mph - N/A   Clear
11:55 PM 19.4 °F 11.5 °F 8.6 °F 63% 30.00 in 10.0 mi SSW 5.8 mph - N/A   Clear